Location: *
(51.5000°N, 0.1100°W)
Time: 06:09:02
(UTC+00:00)

IDEFIX/ARIANE 42P - Pass Details

Date: 04 August 2024
Orbit: 782 x 799 km, 98.5° (Epoch: 08 September)

Event Time Altitude Azimuth Distance (km) Brightness Sun altitude
Rises 00:35:50 0° 25° (NNE) 3,283 7.1 -21.1°
Reaches altitude 10° 00:38:46 10° 42° (NE) 2,349 5.8 -21.0°
Maximum altitude 00:42:36 21° 90° (E) 1,721 4.4 -20.9°
Enters shadow 00:45:06 15° 125° (SE) 2,008 4.4 -20.8°
